User: anonymous   Login
Location: Unspecified
(0.0000°N, 0.0000°E)
Time: 04:01:15
(UTC+00:00)
Language:

PAKSAT 1R - Orbit

View from above orbital plane
View from above orbital plane
View from above satellite
View from above satellite

Ground track
Ground track

The orbit data is extracted from the following two-line orbital elements,

1 37779U 11042A   15 57.21764122  .00000000  00000-0  10000-3 0  9998
2 37779 000.0366 291.3844 0002834 018.3623 322.3366 01.00272207  3167
Epoch (UTC): 26 February 2015 05:13:24
Eccentricity: 0.0002834
inclination: 0.0366°
perigee height: 35774 km
apogee height: 35798 km
right ascension of ascending node: 291.3844°
argument of perigee: 18.3623°
revolutions per day: 1.00272207
mean anomaly at epoch: 322.3366°
orbit number at epoch: 316

The dashed part of the orbit path shows where the satellite is in the earth's shadow,  

DLR